When you browse on this site, cookies collect data to enhance your experience and personalize the content and advertising you see.
Visit our Privacy Policy to learn more. By continuing to use the site, you agree to this use of cookies and data.
  • In Portugal
  • List of Countries
  • For 7 days
  • Water Temperature
  • Satellite Maps
  • Weather Map
  • Weather Widgets
  • user-avatar
    Login

    Hourly Weather Anielew

    Today, 20 April, Saturday

    Time Temperature Precipitation Wind Pressure Humidity
    00:00 +8°C° 0 mm 3 mps 765 mmHg 60%
    01:00 +7°C° 0 mm 3 mps 765 mmHg 59%
    02:00 +7°C° 0 mm 3 mps 765 mmHg 57%
    03:00 +6°C° 0 mm 2 mps 765 mmHg 56%
    04:00 +5°C° 0 mm 2 mps 765 mmHg 55%
    05:00 +6°C° 0 mm 2 mps 765 mmHg 54%
    06:00 +7°C° 0 mm 2 mps 765 mmHg 54%
    07:00 +8°C° 0 mm 2 mps 765 mmHg 54%
    08:00 +10°C° 0 mm 3 mps 765 mmHg 51%
    09:00 +12°C° 0 mm 3 mps 765 mmHg 47%
    10:00 +14°C° 0 mm 3 mps 764 mmHg 44%
    11:00 +16°C° 0 mm 3 mps 764 mmHg 42%
    12:00 +17°C° 0 mm 3 mps 764 mmHg 41%
    13:00 +19°C° 0 mm 3 mps 764 mmHg 40%
    14:00 +19°C° 0 mm 3 mps 763 mmHg 39%
    15:00 +19°C° 0 mm 4 mps 763 mmHg 38%
    16:00 +19°C° 0 mm 4 mps 763 mmHg 38%
    17:00 +17°C° 0 mm 3 mps 763 mmHg 43%
    18:00 +14°C° 0 mm 3 mps 763 mmHg 49%
    19:00 +12°C° 0 mm 3 mps 762 mmHg 55%
    20:00 +11°C° 0 mm 3 mps 763 mmHg 56%
    21:00 +9°C° 0 mm 3 mps 763 mmHg 57%
    22:00 +8°C° 0 mm 3 mps 763 mmHg 59%
    23:00 +7°C° 0 mm 3 mps 763 mmHg 61%

    Tomorrow, 21 April, Sunday

    Time Temperature Precipitation Wind Pressure Humidity
    00:00 +7°C° 0 mm 3 mps 763 mmHg 63%
    01:00 +6°C° 0 mm 2 mps 762 mmHg 65%
    02:00 +6°C° 0 mm 2 mps 762 mmHg 67%
    03:00 +5°C° 0 mm 2 mps 762 mmHg 69%
    04:00 +5°C° 0 mm 2 mps 762 mmHg 71%
    05:00 +6°C° 0 mm 2 mps 762 mmHg 68%
    06:00 +7°C° 0 mm 2 mps 762 mmHg 65%
    07:00 +8°C° 0 mm 3 mps 761 mmHg 62%
    08:00 +10°C° 0 mm 3 mps 761 mmHg 56%
    09:00 +12°C° 0 mm 3 mps 761 mmHg 49%
    10:00 +14°C° 0 mm 3 mps 761 mmHg 43%
    11:00 +16°C° 0 mm 3 mps 760 mmHg 40%
    12:00 +17°C° 0 mm 3 mps 760 mmHg 38%
    13:00 +18°C° 0 mm 3 mps 759 mmHg 35%
    14:00 +18°C° 0 mm 3 mps 759 mmHg 36%
    15:00 +18°C° 0 mm 3 mps 758 mmHg 37%
    16:00 +18°C° 0 mm 3 mps 758 mmHg 38%
    17:00 +17°C° 0 mm 3 mps 758 mmHg 43%
    18:00 +16°C° 0 mm 3 mps 757 mmHg 49%
    19:00 +13°C° 0 mm 3 mps 757 mmHg 54%
    20:00 +12°C° 0 mm 3 mps 757 mmHg 58%
    21:00 +11°C° 0 mm 4 mps 757 mmHg 61%
    22:00 +10°C° 0 mm 4 mps 757 mmHg 65%
    23:00 +7°C° 0 mm 4 mps 757 mmHg 72%

    Day after tomorrow, 22 April, Monday

    Time Temperature Precipitation Wind Pressure Humidity
    00:00 +7°C° 0 mm 3 mps 757 mmHg 78%
    01:00 +6°C° 0 mm 2 mps 757 mmHg 85%
    02:00 +5°C° 0 mm 2 mps 757 mmHg 88%
    03:00 +5°C° 0 mm 2 mps 757 mmHg 90%
    04:00 +4°C° 0 mm 2 mps 757 mmHg 92%
    05:00 +5°C° 0 mm 3 mps 757 mmHg 85%
    06:00 +7°C° 0 mm 3 mps 757 mmHg 79%
    07:00 +8°C° 0 mm 3 mps 757 mmHg 72%
    08:00 +8°C° 0 mm 4 mps 757 mmHg 67%
    09:00 +11°C° 0 mm 4 mps 757 mmHg 62%
    10:00 +13°C° 0 mm 5 mps 757 mmHg 57%
    11:00 +14°C° 0 mm 6 mps 756 mmHg 55%
    12:00 +14°C° 0 mm 6 mps 756 mmHg 52%
    13:00 +15°C° 0 mm 7 mps 756 mmHg 50%
    14:00 +15°C° 0 mm 7 mps 756 mmHg 51%
    15:00 +16°C° 0 mm 7 mps 756 mmHg 52%
    16:00 +16°C° 0 mm 7 mps 755 mmHg 53%
    17:00 +15°C° 0 mm 6 mps 755 mmHg 58%
    18:00 +13°C° 0 mm 6 mps 755 mmHg 63%
    19:00 +12°C° 0 mm 5 mps 755 mmHg 68%
    20:00 +12°C° 0 mm 5 mps 756 mmHg 67%
    21:00 +10°C° 0 mm 6 mps 756 mmHg 66%
    22:00 +10°C° 0 mm 6 mps 756 mmHg 65%
    23:00 +9°C° 0 mm 7 mps 756 mmHg 63%

    23 April, Tuesday

    Time Temperature Precipitation Wind Pressure Humidity
    00:00 +9°C° 0 mm 7 mps 755 mmHg 61%
    01:00 +9°C° 0 mm 8 mps 755 mmHg 59%
    02:00 +7°C° 0 mm 8 mps 755 mmHg 59%
    03:00 +7°C° 0 mm 8 mps 754 mmHg 60%
    04:00 +6°C° 0 mm 8 mps 754 mmHg 61%
    05:00 +7°C° 0 mm 9 mps 754 mmHg 61%
    06:00 +7°C° 0 mm 9 mps 754 mmHg 61%
    07:00 +8°C° 0 mm 10 mps 753 mmHg 62%
    08:00 +9°C° 0 mm 10 mps 753 mmHg 59%
    09:00 +12°C° 0 mm 10 mps 753 mmHg 56%
    10:00 +14°C° 0 mm 10 mps 753 mmHg 53%
    11:00 +14°C° 0 mm 10 mps 752 mmHg 52%
    12:00 +16°C° 0 mm 10 mps 752 mmHg 51%
    13:00 +17°C° 0 mm 10 mps 752 mmHg 50%
    14:00 +17°C° 0 mm 10 mps 751 mmHg 51%
    15:00 +17°C° 0 mm 9 mps 751 mmHg 51%
    16:00 +17°C° 0 mm 9 mps 750 mmHg 52%
    17:00 +16°C° 0 mm 9 mps 750 mmHg 53%
    18:00 +15°C° 0 mm 9 mps 750 mmHg 54%
    19:00 +13°C° 0 mm 9 mps 750 mmHg 56%
    20:00 +12°C° 0.4 mm 9 mps 750 mmHg 64%
    21:00 +11°C° 0.4 mm 9 mps 750 mmHg 73%
    22:00 +8°C° 0.4 mm 9 mps 750 mmHg 81%
    23:00 +10°C° 1.5 mm 8 mps 750 mmHg 81%

    24 April, Wednesday

    Time Temperature Precipitation Wind Pressure Humidity
    00:00 +10°C° 1.5 mm 8 mps 749 mmHg 81%
    01:00 +10°C° 1.5 mm 7 mps 749 mmHg 81%
    02:00 +10°C° 0.1 mm 7 mps 749 mmHg 81%
    03:00 +10°C° 0.1 mm 7 mps 749 mmHg 81%
    04:00 +9°C° 0.1 mm 6 mps 749 mmHg 81%
    05:00 +10°C° 0 mm 7 mps 749 mmHg 79%
    06:00 +11°C° 0 mm 7 mps 749 mmHg 77%
    07:00 +12°C° 0 mm 8 mps 749 mmHg 75%
    08:00 +15°C° 0 mm 8 mps 749 mmHg 70%
    09:00 +16°C° 0 mm 8 mps 749 mmHg 66%
    10:00 +18°C° 0 mm 8 mps 750 mmHg 62%
    11:00 +20°C° 0 mm 8 mps 750 mmHg 61%
    12:00 +20°C° 0 mm 7 mps 750 mmHg 60%
    13:00 +21°C° 0 mm 7 mps 750 mmHg 59%
    14:00 +21°C° 0 mm 7 mps 750 mmHg 59%
    15:00 +21°C° 0 mm 6 mps 750 mmHg 59%
    16:00 +22°C° 0 mm 6 mps 750 mmHg 59%
    17:00 +20°C° 0 mm 5 mps 750 mmHg 64%
    18:00 +19°C° 0 mm 4 mps 750 mmHg 69%
    19:00 +18°C° 0 mm 4 mps 751 mmHg 74%
    20:00 +17°C° 0 mm 3 mps 751 mmHg 77%
    21:00 +16°C° 0 mm 3 mps 751 mmHg 79%
    22:00 +14°C° 0 mm 3 mps 751 mmHg 81%
    23:00 +14°C° 0 mm 4 mps 751 mmHg 81%

    25 April, Thursday

    Time Temperature Precipitation Wind Pressure Humidity
    00:00 +14°C° 0 mm 4 mps 751 mmHg 81%
    01:00 +13°C° 0 mm 4 mps 751 mmHg 80%
    02:00 +13°C° 0 mm 4 mps 751 mmHg 81%
    03:00 +13°C° 0 mm 4 mps 751 mmHg 82%
    04:00 +12°C° 0 mm 4 mps 751 mmHg 84%
    05:00 +13°C° 0 mm 4 mps 751 mmHg 81%
    06:00 +15°C° 0 mm 5 mps 751 mmHg 78%
    07:00 +16°C° 0 mm 5 mps 751 mmHg 75%
    08:00 +19°C° 0 mm 5 mps 751 mmHg 70%
    09:00 +20°C° 0 mm 6 mps 751 mmHg 66%
    10:00 +21°C° 0 mm 6 mps 751 mmHg 61%
    11:00 +22°C° 0 mm 6 mps 751 mmHg 59%
    12:00 +23°C° 0 mm 6 mps 751 mmHg 57%
    13:00 +25°C° 0 mm 5 mps 751 mmHg 54%
    14:00 +25°C° 0 mm 5 mps 750 mmHg 54%
    15:00 +25°C° 0 mm 5 mps 750 mmHg 53%
    16:00 +26°C° 0 mm 5 mps 750 mmHg 53%
    17:00 +23°C° 0 mm 4 mps 750 mmHg 59%
    18:00 +21°C° 0 mm 3 mps 750 mmHg 66%
    19:00 +19°C° 0 mm 3 mps 750 mmHg 73%
    20:00 +19°C° 0 mm 3 mps 750 mmHg 73%
    21:00 +19°C° 0 mm 3 mps 750 mmHg 73%
    22:00 +18°C° 0 mm 4 mps 750 mmHg 73%
    23:00 +18°C° 0 mm 4 mps 750 mmHg 73%
    Show more